Temp
19 19 17 17 18 18 18 15 14 14 13 13 12 12 12 10 11 9 8 8 8 7 7 7 8 9 9 8 8 8 8 8 5 6 6 7 7 7 6 6 6 6 4
19 19 18 17 17 18 16 15 14 13 13 13 12 12 11 11 9 8 9 8 8 7 7 8 9 9 8 8 8 8 8 7 7 5 6 6 6 6 6 5 4 4 4
20 20 19 17 16 14 15 14 13 13 12 12 12 11 11 9 8 8 8 8 7 8 8 8 8 8 8 8 7 7 7 7 6 5 5 5 5 5 5 4 4 3 3
20 19 17 15 16 14 15 14 13 12 12 11 11 10 9 9 8 8 8 7 8 8 8 8 8 7 7 7 7 7 6 6 6 6 5 4 4 4 4 3 3 2 2
18 15 13 14 13 13 12 13 12 12 11 10 9 9 8 8 8 7 8 7 7 7 7 7 7 6 6 6 5 5 5 5 5 4 3 2 2 2 3 3 2 1 1
11 11 11 11 11 11 10 10 9 9 9 9 9 8 7 7 7 7 7 7 8 7 7 7 6 5 5 5 4 4 3 2 1 1 1 0 1 1 1 1 1 -1 -2
10 9 9 9 9 8 8 8 8 8 8 8 7 7 7 7 7 7 7 7 6 6 5 4 4 3 3 3 2 2 2 2 1 -0 -0 -0 -0 0 0 -1 -1 -1 -1
9 9 9 9 8 7 7 7 6 7 7 7 7 7 7 7 6 6 6 5 4 4 3 2 2 2 1 1 0 -0 -0 -1 -1 -1 -1 -1 -1 -1 -0 -1 -1 -1 -1
8 7 7 7 6 6 6 6 7 7 7 7 7 7 7 6 5 5 4 3 3 2 2 1 0 -0 -0 -1 -2 -2 -2 -2 -2 -2 -2 -2 -2 -2 -1 -2 -2 -2 -2
7 6 6 6 6 6 7 7 7 8 8 7 6 6 5 4 3 3 3 2 1 -0 -1 -1 -2 -2 -3 -3 -3 -3 -4 -3 -2 -2 -3 -3 -3 -2 -3 -3 -3 -3 -3
7 7 6 7 7 7 7 7 8 7 7 5 4 3 3 3 2 1 1 -0 -1 -2 -2 -3 -3 -4 -4 -4 -3 -4 -3 -3 -3 -3 -3 -3 -3 -3 -3 -3 -3 -3 -3
8 8 8 8 7 7 7 7 7 6 5 4 4 2 1 0 0 -0 -1 -2 -3 -3 -4 -4 -5 -4 -4 -4 -4 -4 -4 -4 -4 -3 -3 -3 -4 -3 -3 -3 -3 -2 -3
8 8 8 8 8 7 7 6 5 5 4 3 2 1 -0 -1 -2 -3 -3 -3 -4 -4 -5 -5 -5 -4 -4 -5 -5 -5 -5 -5 -6 -5 -4 -3 -3 -3 -3 -3 -3 -3 -2
7 7 7 6 5 5 4 4 3 3 2 1 1 0 -1 -3 -3 -4 -4 -4 -5 -5 -6 -6 -5 -5 -5 -6 -6 -7 -7 -7 -7 -7 -7 -6 -5 -4 -3 -3 -3 -3 -3
5 5 4 3 3 2 2 1 2 1 1 0 -1 -1 -2 -3 -4 -5 -6 -7 -7 -8 -8 -7 -6 -6 -6 -7 -7 -8 -8 -8 -8 -9 -8 -8 -7 -6 -4 -3 -3 -3 -3
2 2 2 1 1 1 0 -1 -1 -1 -2 -2 -2 -3 -4 -4 -5 -6 -7 -7 -8 -8 -8 -7 -7 -7 -8 -9 -9 -9 -10 -10 -10 -10 -10 -9 -9 -7 -7 -4 -3 -3 -3
-0 -0 -0 -0 -1 -1 -2 -2 -3 -4 -4 -4 -5 -5 -5 -6 -7 -8 -8 -8 -8 -8 -8 -8 -8 -9 -9 -10 -10 -11 -11 -11 -11 -11 -11 -11 -10 -9 -8 -8 -4 -3 -4
-2 -2 -3 -3 -4 -4 -4 -4 -5 -4 -4 -4 -5 -5 -6 -8 -8 -9 -8 -8 -8 -8 -8 -9 -10 -10 -11 -11 -11 -11 -11 -12 -12 -12 -12 -12 -12 -11 -11 -10 -9 -4 -3
-4 -5 -5 -5 -6 -6 -6 -6 -5 -5 -5 -5 -5 -6 -7 -9 -9 -9 -9 -9 -10 -10 -10 -10 -11 -11 -12 -12 -12 -12 -13 -13 -13 -13 -13 -13 -13 -13 -12 -12 -11 -10 -8
-6 -6 -6 -6 -6 -6 -7 -7 -6 -6 -6 -6 -7 -7 -8 -9 -10 -10 -10 -10 -11 -11 -12 -12 -12 -12 -13 -13 -13 -14 -14 -14 -14 -14 -14 -13 -14 -14 -14 -13 -12 -11 -10
-7 -7 -7 -7 -8 -7 -7 -8 -8 -8 -8 -8 -9 -10 -10 -11 -11 -11 -11 -12 -12 -12 -13 -13 -13 -14 -14 -14 -14 -15 -15 -15 -15 -15 -15 -16 -16 -16 -15 -14 -14 -13 -11
-8 -8 -8 -8 -8 -9 -9 -9 -9 -10 -10 -10 -11 -11 -11 -11 -12 -12 -13 -13 -13 -13 -14 -14 -14 -15 -15 -15 -16 -16 -15 -15 -15 -16 -16 -16 -16 -16 -16 -16 -15 -14 -13
-9 -9 -9 -9 -10 -10 -10 -11 -11 -11 -11 -11 -12 -12 -13 -13 -14 -14 -14 -14 -15 -15 -15 -15 -16 -16 -16 -16 -16 -16 -16 -16 -16 -16 -16 -16 -17 -17 -17 -17 -16 -15 -14
-10 -10 -10 -11 -11 -11 -11 -11 -12 -12 -13 -13 -13 -14 -14 -14 -15 -15 -16 -16 -16 -16 -16 -17 -17 -17 -17 -17 -17 -17 -17 -17 -16 -16 -16 -16 -17 -16 -17 -17 -17 -16 -14
-11 -11 -11 -12 -12 -12 -12 -13 -13 -13 -14 -14 -14 -15 -15 -15 -16 -16 -17 -17 -17 -17 -18 -18 -18 -18 -19 -18 -18 -18 -17 -17 -17 -17 -16 -16 -17 -16 -17 -17 -17 -16 -15
-12 -12 -13 -13 -13 -14 -14 -14 -14 -14 -15 -15 -15 -16 -16 -17 -17 -17 -18 -18 -19 -19 -19 -19 -19 -20 -20 -19 -19 -18 -18 -18 -18 -17 -17 -17 -17 -17 -17 -17 -16 -16 -16
Height
754 754 757 760 764 769 771 776 781 785 790 795 798 802 805 811 815 820 824 827 829 831 834 837 838 839 840 840 839 840 839 839 836 835 836 836 834 834 833 831 829 827 826
747 747 750 751 758 761 765 771 776 781 786 789 793 798 801 805 810 815 817 821 823 827 830 833 834 835 835 835 834 834 834 834 832 827 827 827 827 827 825 824 823 822 823
739 743 745 747 751 757 756 769 775 777 782 787 792 796 799 803 808 811 813 816 820 825 827 829 830 830 830 830 830 830 829 829 827 823 820 820 820 820 819 817 816 815 814
732 737 738 743 746 750 756 762 770 773 777 781 782 789 796 800 804 808 811 814 818 821 824 825 825 826 826 826 826 825 824 823 821 818 815 813 812 811 810 809 807 807 805
727 730 735 737 741 744 753 757 764 769 771 776 783 788 794 798 803 806 809 812 815 818 818 819 820 821 822 821 821 821 819 817 815 812 809 807 804 803 802 801 800 799 797
726 729 733 739 744 749 752 755 760 765 774 778 782 788 794 797 801 806 807 809 811 813 815 817 817 818 818 818 817 815 815 812 811 809 805 803 799 797 796 795 794 793 791
726 733 738 742 746 750 753 758 763 768 774 778 783 787 789 796 799 805 806 807 809 811 812 813 813 814 813 812 810 809 809 807 806 804 799 798 794 792 789 787 786 786 783
731 735 739 744 748 752 755 759 763 769 773 778 782 786 790 794 798 800 801 804 806 808 809 810 810 809 808 807 804 802 800 799 798 797 795 790 788 785 782 780 778 776 776
731 735 739 742 746 751 756 761 765 770 774 779 782 785 787 791 795 797 799 802 803 805 806 806 806 805 804 802 798 796 793 791 790 788 786 783 780 778 776 774 771 770 769
731 735 739 744 748 753 757 763 768 772 776 778 780 783 786 790 794 796 797 799 800 802 803 803 802 801 799 798 796 793 788 784 782 778 776 773 771 768 767 766 765 763 762
732 736 742 746 750 754 759 763 767 771 774 778 781 785 788 790 793 795 796 797 798 799 798 797 797 795 795 794 792 788 784 779 775 772 768 765 763 761 760 758 757 755 755
734 739 744 748 753 756 760 763 766 769 773 778 781 785 788 791 792 793 794 795 795 795 794 793 792 791 790 788 786 783 780 776 772 768 763 759 757 754 752 751 749 749 748
738 742 746 750 754 757 760 763 767 770 774 778 781 785 787 789 790 791 792 792 792 791 791 790 788 787 785 783 782 779 776 773 769 765 760 753 751 748 745 743 742 740 741
740 745 749 751 754 758 761 764 767 771 775 779 783 785 787 788 790 790 791 790 788 787 786 785 784 783 782 780 777 775 773 771 768 764 759 753 747 742 739 737 736 735 736
745 750 754 757 760 764 768 772 774 777 780 781 783 785 786 787 788 788 788 787 785 784 783 782 781 780 778 776 774 772 770 767 764 761 756 751 745 740 733 731 730 729 730
752 757 761 764 767 770 774 777 780 781 783 784 785 786 787 787 788 788 787 786 784 782 780 780 779 778 776 774 772 770 768 766 763 760 756 751 746 740 732 723 722 722 724
759 764 766 770 774 777 780 781 783 784 784 785 786 787 787 787 786 786 786 783 781 780 778 778 777 776 774 772 770 768 766 764 762 759 755 750 745 739 733 726 719 717 718
767 770 774 778 780 781 782 784 785 785 785 785 785 785 785 784 784 785 783 780 778 777 777 776 775 774 773 770 768 766 764 761 759 756 752 749 744 739 733 728 721 714 710
772 776 779 781 782 783 783 784 784 784 784 784 783 782 783 783 782 781 779 777 776 775 774 774 773 772 770 768 766 764 762 760 757 753 750 747 743 740 734 729 723 717 711
778 780 781 782 784 785 785 784 783 783 783 783 782 782 781 781 780 778 776 775 775 774 773 772 771 769 767 766 764 762 759 756 754 751 747 745 742 739 734 729 723 718 711
783 784 785 785 785 786 785 785 784 783 783 783 782 781 780 779 778 776 775 774 773 772 771 769 768 766 764 762 760 758 756 753 751 748 745 742 740 735 732 728 722 717 712
786 786 787 787 787 786 786 785 784 783 783 782 781 780 779 777 776 775 774 773 771 770 768 766 764 763 761 760 757 754 752 749 747 745 741 738 735 732 729 725 721 716 711
788 788 788 788 788 787 786 785 784 783 782 781 779 778 777 775 775 774 772 770 768 767 765 763 761 760 758 756 753 751 748 746 744 741 737 734 732 729 725 722 718 714 710
790 789 789 789 788 787 787 785 784 783 782 780 779 777 776 774 773 771 770 768 766 764 762 760 758 756 753 751 749 747 744 742 739 737 734 730 727 724 721 718 715 712 709
792 791 790 789 788 787 786 785 784 782 781 779 777 776 774 772 771 769 767 765 763 760 758 757 755 752 749 746 743 741 739 737 735 732 729 725 722 718 716 714 711 709 706
793 792 791 790 789 788 786 785 783 781 780 778 776 774 773 771 769 767 764 762 759 758 755 752 749 746 743 740 738 736 734 731 727 725 722 719 716 712 710 709 707 705 702
Wind_Speed
35 37 38 40 42 39 34 34 32 30 27 25 29 31 32 30 26 26 20 18 13 11 12 16 18 16 16 17 18 20 22 23 17 21 25 30 30 28 28 28 31 26 20
36 37 40 42 42 38 30 30 32 30 28 28 28 32 32 31 30 27 22 18 15 18 16 19 17 19 21 17 17 19 23 25 29 24 26 28 23 20 20 20 12 11 19
31 38 35 36 36 29 28 27 30 29 27 25 28 32 31 29 27 23 21 20 18 15 16 17 15 11 12 14 15 16 19 21 22 25 24 18 16 19 22 23 26 26 27
39 32 30 32 35 29 30 33 30 28 26 29 32 32 29 25 23 19 17 15 15 17 16 10 8 9 13 16 19 21 22 23 25 29 32 30 31 30 23 22 26 26 24
22 24 28 32 30 30 33 31 29 28 33 33 29 26 25 23 18 16 16 15 15 13 10 8 9 11 13 15 17 20 20 22 24 28 25 26 26 26 24 26 23 23 24
25 24 25 24 25 26 27 28 31 32 29 28 24 24 21 14 12 13 13 17 12 10 9 12 13 15 17 18 17 16 13 14 18 19 21 19 25 26 25 27 24 13 6
25 22 22 23 24 24 25 26 28 29 28 23 21 20 15 15 12 14 12 9 6 6 7 10 12 12 13 17 20 22 24 25 25 21 25 24 26 25 27 25 26 22 20
24 22 21 21 22 22 24 25 25 27 21 19 17 16 13 12 15 12 8 5 4 4 6 7 11 15 17 18 22 25 26 27 26 25 24 29 32 32 30 31 30 29 23
23 23 23 24 25 24 23 26 26 21 18 18 14 15 16 15 12 9 6 5 5 7 10 13 14 16 18 18 21 25 28 30 29 28 26 29 29 25 26 24 22 20 14
21 21 22 22 24 25 25 24 21 20 16 17 16 16 15 15 9 5 4 4 6 8 10 12 13 13 14 17 21 27 29 33 34 33 31 29 30 30 26 25 27 20 14
20 20 22 22 23 25 24 22 19 17 19 20 19 14 11 7 5 2 4 6 5 8 12 15 16 16 17 20 20 22 24 27 31 29 29 28 25 23 24 23 25 30 21
22 22 23 23 20 23 19 18 19 20 20 16 14 12 11 10 4 3 3 4 6 9 12 14 17 19 19 17 15 18 19 22 21 23 23 23 23 24 24 25 26 27 29
24 20 19 20 19 21 20 18 18 16 14 12 10 13 11 10 6 3 3 6 9 10 12 14 18 18 15 12 17 19 19 20 21 22 23 24 23 25 27 28 24 28 25
23 23 21 22 21 21 20 19 19 16 14 11 11 13 12 9 4 4 7 10 12 13 16 17 17 15 9 16 19 20 17 19 19 18 22 26 28 25 27 22 19 19 21
24 22 21 22 22 21 18 14 12 10 7 10 9 9 8 6 5 8 11 13 13 14 16 15 16 14 14 16 18 17 19 20 20 23 22 25 27 26 26 27 21 19 15
26 26 23 21 18 15 12 11 9 6 4 3 1 3 4 4 5 8 11 13 12 13 13 15 16 12 14 16 16 17 17 18 21 22 22 22 24 26 28 21 20 20 17
28 24 22 20 18 15 9 6 5 0 2 2 2 3 3 4 4 8 11 12 11 11 9 12 11 13 15 15 16 16 17 18 22 19 21 23 24 24 25 27 19 19 17
24 19 14 10 8 7 6 4 5 2 1 2 4 6 6 5 4 6 12 12 12 8 10 10 11 13 14 14 17 19 21 22 20 22 22 21 23 22 23 23 26 19 19
15 13 10 7 7 6 5 4 4 4 2 2 4 3 7 6 4 11 16 8 11 9 7 8 11 13 14 16 16 17 18 19 20 22 24 21 21 22 22 23 23 25 25
13 11 9 7 5 3 3 2 3 4 5 6 4 2 1 6 10 14 9 10 10 9 9 12 13 12 13 16 17 17 20 20 20 23 23 19 21 21 22 23 23 25 23
9 7 6 4 3 4 3 4 6 7 7 8 7 7 8 10 11 11 8 9 10 12 14 13 13 15 17 17 17 19 21 21 21 21 18 22 22 23 22 21 23 24 22
7 7 7 6 6 6 9 9 8 6 8 8 9 9 10 11 11 11 11 12 13 14 12 13 16 16 16 15 18 21 20 20 18 21 27 26 25 20 20 23 24 22 23
10 9 9 9 8 8 11 9 9 12 12 9 9 10 11 10 12 13 14 13 13 13 14 15 16 15 16 20 20 16 17 19 24 23 23 20 23 27 27 23 20 21 21
10 10 10 10 11 11 11 12 11 11 12 12 11 10 11 13 14 13 14 16 16 17 16 15 16 20 21 17 18 21 23 21 20 18 25 26 26 28 26 23 21 20 21
11 12 13 13 13 12 12 13 13 13 14 13 12 13 15 14 14 15 17 18 19 17 17 20 23 24 23 24 22 18 18 21 23 24 25 25 26 27 26 24 20 20 19
12 14 14 14 14 12 13 15 16 16 14 13 14 14 12 13 14 16 19 16 15 20 25 28 27 22 20 19 20 20 22 24 25 25 25 24 25 25 24 20 20 20 20
Wind_Direction
212 214 206 211 213 212 211 206 205 205 200 198 204 200 190 174 193 196 181 188 219 217 220 229 242 240 250 255 259 263 268 269 265 279 281 285 284 281 284 285 286 284 259
207 211 208 210 212 214 204 200 203 200 201 203 197 194 182 193 192 187 193 215 207 214 214 242 244 261 256 264 262 267 267 268 268 272 276 280 282 289 291 290 273 286 288
207 213 215 203 202 197 195 198 200 194 193 189 189 189 191 188 190 202 212 211 214 225 237 248 252 251 264 274 281 286 285 285 283 279 284 287 289 291 290 286 287 293 294
207 211 198 191 193 193 197 190 194 190 190 192 187 190 188 192 195 201 208 208 215 230 244 230 249 271 284 291 293 291 289 284 281 280 282 287 287 287 279 280 288 292 293
179 174 181 186 189 189 184 182 189 192 188 182 180 185 190 187 195 207 199 215 228 196 209 231 258 276 284 295 308 306 301 296 296 292 283 282 274 273 270 281 281 286 288
162 156 165 165 171 178 179 179 177 176 176 174 177 180 180 191 190 207 226 195 203 222 256 276 282 288 296 304 299 300 311 326 317 310 297 281 280 271 275 276 268 267 271
132 138 148 159 162 168 172 171 170 171 168 169 174 176 177 185 193 212 203 216 238 266 287 294 300 299 292 300 298 297 298 301 306 311 303 294 289 287 284 269 264 260 255
133 143 157 165 169 170 169 167 168 165 162 163 169 173 184 192 183 187 188 202 234 262 272 280 292 297 299 307 308 307 308 307 310 307 295 293 295 295 288 274 263 264 258
147 155 163 167 159 159 158 163 163 160 157 162 177 170 169 154 170 179 198 225 251 267 280 289 294 297 302 311 315 316 312 307 307 305 298 293 294 292 287 290 260 228 229
146 150 161 164 157 154 158 157 158 160 166 159 144 149 153 150 162 185 234 271 297 303 306 308 312 319 316 310 311 310 306 303 309 310 308 299 296 294 285 273 262 232 235
149 153 153 152 152 156 156 159 166 168 155 137 128 117 138 155 153 240 302 309 320 320 321 320 321 322 319 317 321 314 311 320 310 302 296 296 294 282 282 276 269 251 239
145 143 150 158 153 156 161 155 151 149 141 135 130 119 125 130 139 243 284 317 320 324 323 321 320 321 317 323 336 340 337 332 334 314 296 290 286 288 281 277 274 264 254
144 144 149 150 147 150 140 133 136 144 145 137 133 136 137 146 157 180 267 297 312 319 321 318 321 323 325 336 333 337 341 342 340 329 328 284 287 284 284 284 275 260 257
125 125 123 120 116 121 120 120 123 129 135 139 146 148 149 161 199 268 303 313 319 324 327 329 331 334 333 330 340 346 345 347 342 337 334 323 330 292 282 275 262 259 247
110 108 104 102 104 100 95 91 104 109 133 145 151 170 180 202 255 301 321 324 327 326 325 328 335 342 347 350 350 352 349 348 346 343 337 335 331 334 287 271 251 245 232
90 91 89 90 93 91 98 98 92 88 85 66 312 266 252 266 292 320 332 330 323 326 321 321 326 355 1 357 355 350 351 348 344 338 339 335 329 333 333 286 255 235 229
91 91 89 84 86 90 99 105 122 123 281 283 272 256 278 284 307 329 330 328 331 338 11 359 3 1 355 351 349 347 342 341 341 339 337 336 332 334 335 336 286 241 228
87 81 81 86 87 86 65 63 62 54 224 314 290 284 262 239 294 342 341 330 316 314 327 341 351 349 349 349 345 340 338 338 341 341 339 336 336 340 337 337 333 297 232
92 89 89 84 81 72 59 51 37 10 314 296 326 302 222 207 295 332 342 342 344 339 340 339 339 340 338 339 340 339 339 338 338 339 339 333 340 339 332 333 329 320 333
94 92 90 87 86 78 33 24 22 2 6 1 358 3 282 331 346 356 3 352 356 353 345 340 337 339 339 336 334 335 334 335 336 335 333 334 338 337 330 328 329 332 319
79 80 83 85 57 36 41 25 356 360 1 5 29 25 11 359 353 350 355 350 342 336 333 329 327 330 331 330 329 330 331 328 329 331 331 331 328 326 325 324 325 319 318
78 67 57 53 39 20 9 6 1 7 1 358 349 344 343 350 357 358 350 342 337 333 331 329 329 329 328 322 323 324 322 321 327 324 324 323 325 324 322 322 321 322 325
58 51 44 31 17 5 359 4 359 349 343 344 355 356 354 355 351 346 343 343 343 339 333 330 328 323 317 316 317 317 320 318 319 317 318 322 319 315 314 311 311 315 319
43 34 29 21 13 10 3 358 2 5 1 357 354 355 353 347 344 344 340 338 335 332 329 324 323 321 322 318 316 311 311 311 314 311 315 314 312 312 314 310 305 304 310
28 23 16 7 3 3 359 357 356 352 348 345 343 340 339 338 337 336 333 332 331 326 322 322 321 317 312 310 311 313 319 318 311 313 313 311 308 307 305 307 301 303 308
24 18 14 9 5 13 11 358 353 350 349 348 340 338 340 338 335 333 334 332 328 326 322 320 320 320 320 319 320 319 316 317 315 310 309 304 299 296 300 292 293 297 301